{"data":{"norad_id":69478,"epoch":"2026-09-20T01:09:27.957600Z","epoch_age_seconds":64455,"freshness":"FRESH","line1":"1 69478U 26131A   26263.04824025  .00013460  00000+0  41846-3 0  9990","line2":"2 69478  97.2844 284.0018 0000940  95.5675 264.5675 15.33448490 16837","mean_motion":15.3344849,"eccentricity":9.4e-5,"inclination_deg":97.2844,"raan_deg":284.0018,"arg_perigee_deg":95.5675,"mean_anomaly_deg":264.5675,"bstar":0.00041846,"rev_number":1683,"period_min":93.905990934198,"perigee_km":464.88948575292,"apogee_km":466.17609567358,"semimajor_km":6843.6697907132,"source":"CELESTRAK","updated_at":"2026-09-20T09:00:44.204967Z"}}